Theta_e
314 317 318 319 321 323 326 328 327 325 323 321 321 322 323 320 316 317 318 318 317 318 318 323 325 325 324 326 326 327 331 334 335 334 332 327 328 325 322 324 325 325 325 329 331
311 313 316 317 319 321 322 326 329 327 325 322 321 322 322 319 317 318 319 317 315 316 319 322 324 323 323 325 326 327 330 332 328 324 328 326 327 324 323 324 323 321 325 331 331
310 310 312 315 317 318 320 321 326 329 326 324 321 322 322 317 319 322 316 317 314 314 320 321 320 323 323 323 326 325 326 328 326 322 320 325 323 323 323 325 324 322 322 328 331
309 310 309 311 314 317 317 318 321 325 328 325 321 322 321 318 325 320 317 314 317 314 321 323 321 321 324 324 323 324 324 325 327 321 320 320 321 321 321 322 320 318 322 326 327
309 309 310 309 312 314 315 316 319 321 327 326 321 322 320 320 320 320 320 316 321 318 321 322 321 321 323 322 322 323 323 323 323 319 319 320 320 320 320 320 319 318 317 320 324
308 309 309 310 309 312 314 314 316 318 323 326 322 322 320 320 320 321 317 317 326 324 322 322 320 320 320 321 321 322 321 321 320 320 319 319 318 319 318 317 317 318 315 314 315
308 309 309 310 309 309 312 312 312 315 320 326 321 322 320 320 320 316 317 319 323 321 323 321 319 320 319 318 319 319 319 319 319 319 318 319 318 318 317 316 316 315 314 314 314
307 307 308 309 309 308 310 310 309 313 319 325 323 322 322 318 317 318 318 319 322 323 324 320 319 321 319 319 319 318 317 317 317 317 317 317 317 316 317 316 316 315 313 313 314
307 306 308 308 309 308 307 305 308 311 317 324 323 321 323 319 318 317 319 316 319 320 322 320 319 320 320 319 319 318 317 317 318 319 316 315 317 317 315 315 315 313 312 312 313
306 306 307 307 308 307 307 306 307 312 318 324 321 322 320 320 317 318 317 317 318 320 320 319 318 319 319 319 320 319 319 318 319 317 317 316 315 316 316 315 314 314 313 313 312
305 305 305 306 307 307 307 306 314 323 323 323 323 320 322 321 315 315 317 315 316 320 320 318 319 319 319 319 319 318 318 319 320 318 318 318 318 318 317 316 316 315 314 314 313
304 305 304 305 306 306 306 306 309 309 313 313 321 321 321 317 317 316 316 315 315 321 320 319 319 318 318 319 319 318 319 319 319 319 319 319 318 317 317 317 317 317 315 314 314
303 304 304 304 302 304 306 306 306 309 313 315 319 322 319 319 318 316 316 315 317 320 321 320 320 319 318 318 319 319 319 319 319 319 318 318 319 319 318 318 318 317 315 315 314
301 303 304 303 304 305 307 307 306 307 315 317 320 322 322 316 318 316 316 315 319 320 321 320 319 319 318 318 318 318 319 320 319 319 320 318 319 318 318 318 317 316 315 314 314
301 302 303 303 303 303 305 306 305 308 318 316 320 321 321 318 321 318 316 315 317 319 320 322 321 320 320 319 318 319 320 320 320 319 319 319 318 318 317 318 317 316 316 316 316
300 301 302 302 302 303 304 305 304 310 318 322 321 324 325 319 320 320 317 316 316 319 319 320 320 321 320 319 318 319 319 319 319 318 320 318 318 318 318 318 318 316 315 314 314
299 300 301 302 303 302 304 305 307 311 318 322 322 323 326 324 322 322 318 317 317 318 320 320 321 319 320 320 319 318 318 321 322 322 321 317 318 318 319 318 318 316 315 314 313
298 299 300 301 302 303 304 307 308 308 312 320 321 322 326 324 322 320 321 318 316 318 320 321 322 319 318 320 320 319 319 321 324 323 322 318 320 318 317 316 316 316 315 315 314
298 299 300 301 303 303 304 305 306 305 312 318 318 324 324 325 323 322 320 319 318 318 321 321 321 319 317 318 319 319 320 318 320 319 319 319 318 317 316 315 315 315 316 316 315
298 299 300 300 301 303 305 303 304 303 307 314 321 322 325 324 323 323 322 319 320 318 319 321 321 319 318 317 317 319 318 320 319 322 323 321 320 320 317 316 313 315 314 315 314
299 301 300 301 302 304 305 304 303 303 305 309 315 320 321 323 323 322 322 320 318 319 319 320 322 320 317 318 319 318 319 318 318 319 322 322 321 317 317 313 314 316 313 315 313
299 303 301 303 304 305 306 304 304 303 303 305 307 310 318 320 323 323 322 320 319 319 319 319 321 323 319 317 316 317 318 318 320 320 320 320 320 317 314 313 314 315 312 313 313
300 300 300 302 303 305 304 303 305 304 304 307 309 309 310 316 320 322 320 318 320 319 319 319 321 324 321 317 315 316 317 317 317 317 319 320 319 315 314 313 313 313 313 312 313
298 302 303 303 304 303 303 304 306 304 304 304 306 307 308 315 316 321 322 320 319 320 322 320 320 322 324 321 316 317 317 318 318 319 319 319 318 316 314 314 313 313 312 310 312
298 300 301 303 303 303 301 302 303 304 305 303 304 304 311 314 319 319 320 318 320 319 322 320 321 320 321 321 318 317 317 317 318 318 319 318 318 318 316 315 315 314 315 312 311
299 302 301 301 300 300 300 301 301 303 304 305 304 305 306 310 311 316 317 319 319 317 319 319 321 320 321 320 320 320 318 317 317 317 318 318 318 316 314 314 315 315 315 315 314
298 298 301 299 298 299 300 300 302 303 302 304 306 305 305 309 313 312 314 317 318 317 318 318 319 320 322 319 320 321 319 317 316 316 316 317 317 315 314 314 314 314 315 315 314
Wind_Speed
22 21 19 19 18 19 19 20 20 20 19 20 19 18 18 20 25 19 18 14 11 17 15 7 10 11 10 7 4 4 4 6 8 5 4 8 4 2 4 3 1 4 6 11 25
21 23 22 20 19 18 20 20 23 21 20 19 19 18 18 18 22 22 23 19 18 15 10 14 10 12 7 9 5 4 4 4 7 7 4 8 6 8 3 5 4 7 8 17 20
23 21 23 23 21 20 21 21 21 24 21 19 18 18 16 14 9 2 1 13 16 13 14 16 16 11 9 7 7 8 11 11 4 6 5 2 2 1 3 5 7 10 14 11 15
26 23 22 22 23 22 21 21 22 20 22 19 17 16 14 6 6 5 4 3 6 15 12 17 11 10 7 11 9 12 13 16 4 4 1 4 3 2 6 7 4 7 15 11 11
27 24 23 21 22 22 22 22 22 24 24 21 17 14 8 8 11 16 22 9 7 16 17 13 11 9 10 9 10 13 9 10 5 7 5 7 5 6 7 8 7 5 6 10 11
26 24 24 23 22 22 23 23 24 22 20 22 17 13 7 15 14 17 11 8 10 19 18 17 11 10 9 13 9 5 11 14 7 7 7 6 8 7 8 8 10 9 10 9 9
26 26 25 24 22 21 21 23 25 26 21 23 20 14 14 20 11 3 5 11 15 21 15 20 19 6 3 8 9 2 5 8 7 7 7 5 8 10 14 10 10 10 8 10 10
26 27 26 24 22 21 22 23 27 26 21 18 21 16 10 17 29 29 17 11 12 15 21 18 16 5 8 1 2 3 7 7 8 12 6 8 8 13 3 6 7 8 8 10 12
25 25 26 26 22 20 23 28 28 24 22 19 16 12 7 10 26 25 26 18 14 14 18 15 10 8 9 6 6 7 5 14 8 4 7 7 6 1 6 6 6 8 9 9 9
26 25 25 24 19 20 22 28 28 25 18 20 15 9 10 14 12 29 26 26 15 11 11 9 5 9 12 8 10 7 12 8 8 8 6 8 10 11 8 9 11 11 10 9 10
27 24 25 23 19 17 17 12 3 6 12 9 11 9 7 25 10 20 26 22 17 13 15 14 11 16 18 15 12 15 10 9 6 12 8 9 8 10 10 9 9 9 9 10 10
25 21 23 23 20 16 10 4 3 7 9 14 19 21 31 2 11 13 24 17 20 16 17 11 20 17 16 16 17 16 12 8 7 3 7 7 10 11 10 13 12 10 10 10 9
25 24 22 23 22 14 11 13 12 7 6 9 13 18 12 16 17 14 22 22 22 21 23 21 15 18 18 16 15 14 12 7 8 6 4 7 12 15 14 18 16 12 10 9 10
25 25 21 24 14 15 12 3 12 8 5 6 10 13 23 3 10 23 26 22 11 24 21 19 21 23 20 17 15 14 7 8 8 4 5 3 5 10 14 11 9 10 10 10 13
25 24 22 18 17 14 16 10 13 6 6 10 14 10 19 18 7 16 25 22 19 15 19 18 19 18 19 22 14 10 5 5 6 5 6 10 7 6 11 10 10 6 4 2 4
24 24 23 17 14 18 17 15 6 6 7 5 7 18 20 22 20 8 16 20 19 16 16 19 10 15 12 9 9 6 5 2 5 2 7 12 11 5 8 10 2 4 6 8 6
27 26 24 19 16 18 14 1 3 6 3 6 6 16 29 23 25 18 22 24 20 20 20 15 17 4 5 11 9 7 7 3 4 4 6 9 9 9 7 7 4 5 4 3 8
27 28 27 26 26 20 14 4 10 8 15 6 3 19 23 19 21 28 28 21 24 17 11 16 12 15 8 11 13 14 15 5 6 5 4 2 6 5 8 0 2 2 4 3 6
26 27 24 30 24 19 6 10 6 13 5 8 9 15 19 23 14 22 18 27 29 23 15 18 15 16 16 7 15 8 15 13 8 14 4 5 5 5 7 8 2 4 2 2 4
20 16 26 33 24 17 9 17 12 18 12 9 5 10 10 23 17 22 24 23 27 29 22 9 9 15 11 12 14 12 10 7 6 4 5 5 7 5 8 10 8 4 5 5 6
9 4 15 15 20 6 6 8 17 23 18 4 5 6 14 15 19 26 24 17 31 29 22 18 8 6 14 11 15 12 11 6 6 9 4 1 5 1 11 10 9 2 7 4 8
4 4 5 4 5 3 7 10 16 16 17 17 7 7 9 9 19 21 27 24 29 25 31 22 9 12 18 10 10 18 22 16 6 5 11 9 9 2 7 8 8 5 8 6 8
2 4 14 6 4 4 9 18 21 20 19 4 8 13 11 11 7 27 19 27 17 30 28 24 8 12 12 8 9 10 15 11 14 6 16 7 5 4 8 9 8 8 7 7 6
2 3 3 3 4 4 2 8 16 19 21 19 12 9 14 11 15 10 28 10 11 9 21 24 13 19 17 16 8 13 17 19 17 15 12 20 14 4 8 8 8 8 8 10 9
3 3 5 3 3 4 5 2 12 8 15 18 15 18 12 4 12 16 16 5 10 12 15 18 21 18 20 10 20 19 18 20 24 25 16 12 16 15 9 9 8 8 5 8 11
2 3 3 5 11 13 8 5 13 17 14 17 21 15 21 21 15 10 19 7 8 17 12 18 19 20 16 20 19 16 18 26 25 22 17 14 23 7 7 5 3 4 3 5 7
6 8 4 6 7 8 8 12 9 12 11 12 19 18 19 26 13 12 16 15 14 11 16 17 12 14 20 14 11 15 25 13 17 17 18 22 19 6 9 9 6 7 5 4 6
Wind_Direction
323 321 324 324 319 303 300 296 280 286 292 294 295 301 307 315 312 308 269 242 290 238 264 232 217 222 232 256 270 288 281 234 229 264 136 109 189 99 24 118 27 132 77 105 137
318 317 314 319 321 317 302 293 288 277 284 291 292 298 306 317 309 286 265 251 246 236 218 225 208 220 214 222 188 231 245 265 12 55 31 144 205 156 162 222 158 100 98 126 146
323 313 312 311 314 322 311 294 286 272 272 281 287 294 303 321 292 293 41 210 224 225 221 236 230 206 226 220 207 222 246 265 100 59 4 127 230 97 180 261 194 194 166 154 164
320 316 314 307 309 314 314 311 288 297 260 269 274 285 297 304 264 146 119 54 227 219 235 252 243 240 232 237 225 237 225 256 337 89 342 236 252 173 219 252 77 65 149 159 178
324 315 311 307 305 303 311 312 305 283 276 255 258 274 292 230 240 251 283 282 274 203 221 229 229 228 222 235 230 228 261 265 209 121 256 287 256 243 267 248 254 165 143 178 183
324 320 312 306 298 303 301 309 310 304 285 249 239 250 233 251 262 265 240 230 225 199 218 230 231 225 233 246 236 219 217 253 191 212 217 231 260 246 240 241 251 234 190 203 221
332 325 316 312 302 302 303 305 302 301 279 254 229 225 237 234 264 196 240 235 225 205 219 228 239 282 201 290 258 277 293 282 255 229 229 195 263 247 246 225 242 245 229 198 219
332 328 324 321 303 302 300 304 305 297 283 243 227 216 243 243 245 256 251 242 234 224 227 226 239 256 262 359 352 228 249 252 239 210 165 136 263 277 61 161 240 251 214 208 213
329 331 326 322 309 303 302 303 301 289 284 235 213 218 238 235 234 231 218 219 209 227 227 242 238 225 244 233 235 205 237 220 253 200 132 166 266 185 142 158 225 247 235 225 201
330 335 334 328 318 307 305 307 296 294 265 212 213 220 263 232 208 223 222 218 212 197 206 215 225 213 231 202 220 215 217 249 223 189 196 195 237 265 245 201 220 222 231 223 200
327 329 334 331 324 314 320 333 321 227 225 196 186 219 265 220 242 198 199 196 221 194 200 194 207 209 212 225 225 253 246 225 234 156 167 217 257 267 263 255 248 247 245 239 222
325 325 328 331 328 315 306 287 343 32 302 280 255 219 242 53 231 216 194 185 201 198 196 197 219 213 216 226 228 248 262 267 284 228 172 219 251 252 268 262 250 243 239 243 233
325 323 327 326 320 291 250 265 294 292 254 272 222 228 208 229 242 215 189 190 193 200 199 211 205 214 227 223 239 228 236 248 246 266 231 265 265 256 252 240 246 244 241 239 234
320 320 321 326 314 339 301 191 335 315 255 230 208 224 223 169 251 237 196 190 188 205 206 216 221 200 217 233 217 239 218 250 276 336 274 318 277 306 302 278 247 239 235 235 221
318 318 314 323 296 295 297 311 339 347 256 176 199 185 191 188 161 232 224 199 214 192 208 214 200 217 199 219 222 228 242 284 264 226 273 267 275 262 241 250 243 150 139 79 83
315 314 312 312 294 282 282 280 7 234 231 195 186 186 172 199 216 208 207 204 214 214 212 224 195 217 213 215 195 220 220 291 308 314 260 234 232 231 232 215 158 159 198 199 175
307 307 299 287 269 284 288 268 234 242 334 208 210 193 188 190 204 191 198 195 204 205 209 211 225 148 208 186 187 187 141 206 228 218 237 229 225 223 279 320 297 112 352 1 148
304 302 287 271 261 261 246 213 235 235 245 303 213 221 204 184 204 187 195 197 206 196 190 198 214 177 179 201 190 189 190 180 201 197 240 83 224 240 228 167 278 74 143 167 177
305 299 277 265 249 239 215 228 219 221 231 293 267 227 217 204 177 196 209 201 197 199 199 194 216 177 163 189 184 183 215 224 292 289 280 229 239 270 242 232 154 73 61 18 129
307 291 269 259 241 216 215 228 240 249 279 339 259 217 206 210 198 175 195 213 205 207 209 180 204 189 167 192 234 184 174 200 223 219 247 239 248 236 207 215 126 77 86 104 112
293 272 271 252 203 212 229 222 235 259 276 240 324 322 269 193 213 186 190 203 210 194 208 220 225 170 150 197 187 208 212 220 181 223 200 229 248 206 205 147 129 106 124 142 157
259 259 287 228 192 209 222 218 238 243 239 238 250 275 266 295 205 227 214 198 190 193 201 206 212 194 203 199 208 206 216 207 210 209 228 244 245 223 92 128 127 112 132 138 155
258 265 270 196 256 276 272 247 240 243 249 244 230 224 257 278 309 219 225 212 214 193 194 194 222 194 204 198 219 218 206 215 233 259 240 214 238 68 173 160 150 156 143 151 162
261 285 233 185 260 282 295 314 270 236 237 247 232 253 293 285 276 256 231 221 242 194 200 187 198 205 198 207 148 193 215 212 210 225 229 233 246 227 153 163 184 196 183 162 167
212 254 273 279 250 231 268 259 300 318 236 231 250 244 248 299 290 261 227 162 164 246 221 180 211 215 230 226 180 195 203 216 221 227 218 228 233 238 236 213 215 207 203 187 173
259 263 318 287 288 279 270 275 290 295 255 238 237 243 227 246 246 304 340 190 193 220 218 175 210 221 233 227 242 213 221 216 223 231 249 250 253 260 280 296 294 214 231 219 201
223 255 252 258 269 283 271 275 277 313 294 296 254 252 247 240 252 251 296 285 308 224 201 180 191 202 225 228 232 245 217 215 214 219 224 235 244 221 249 255 245 224 213 223 223